"Period start","avg(HW err(1)/warn(2) (#))","avg(Visibility (m))","avg(Weather code (#))","avg(Precip intensity (mm/h))","min(HW err(1)/warn(2) (#))","max(HW err(1)/warn(2) (#))","std(HW err(1)/warn(2) (#))","med(HW err(1)/warn(2) (#))","min(Visibility (m))","max(Visibility (m))","std(Visibility (m))","med(Visibility (m))","min(Weather code (#))","max(Weather code (#))","std(Weather code (#))","med(Weather code (#))","min(Precip intensity (mm/h))","max(Precip intensity (mm/h))","std(Precip intensity (mm/h))","med(Precip intensity (mm/h))"
2016-08-20 00:00:00,2,43358,0,0.00,2,2,0,2,34508,50000,5887,45112,0,0,0,0,0.00,0.00,0.00,0.00
2016-08-20 00:10:00,2,45112,0,0.00,2,2,0,2,33759,50000,6130,48276,0,0,0,0,0.00,0.00,0.00,0.00
2016-08-20 00:20:00,2,47249,0,0.00,2,2,0,2,37722,50000,3674,48730,0,0,0,0,0.00,0.00,0.00,0.00
2016-08-20 00:30:00,2,47057,0,0.00,2,2,0,2,34883,50000,4808,49038,0,0,0,0,0.00,0.00,0.00,0.00
2016-08-20 00:40:00,2,49342,0,0.00,2,2,0,2,44409,50000,1671,50000,0,0,0,0,0.00,0.00,0.00,0.00
2016-08-20 00:50:00,2,44865,0,0.00,2,2,0,2,39058,50000,4382,43710,0,0,0,0,0.00,0.00,0.00,0.00
2016-08-20 01:00:00,2,40662,0,0.00,2,2,0,2,25453,50000,8124,41961,0,0,0,0,0.00,0.00,0.00,0.00
2016-08-20 01:10:00,2,40637,0,0.00,2,2,0,2,26360,50000,6277,40280,0,0,0,0,0.00,0.00,0.00,0.00
2016-08-20 01:20:00,2,46668,0,0.00,2,2,0,2,39703,50000,3569,48053,0,0,0,0,0.00,0.00,0.00,0.00
2016-08-20 01:30:00,2,39284,0,0.00,2,2,0,2,25692,50000,9202,37320,0,0,0,0,0.00,0.00,0.00,0.00
2016-08-20 01:40:00,2,34902,0,0.00,2,2,0,2,26816,42498,5581,36088,0,0,0,0,0.00,0.00,0.00,0.00
2016-08-20 01:50:00,2,39626,0,0.00,2,2,0,2,23521,50000,8873,41968,0,0,0,0,0.00,0.00,0.00,0.00
2016-08-20 02:00:00,2,37616,0,0.00,2,2,0,2,27117,48379,6991,36098,0,0,0,0,0.00,0.00,0.00,0.00
2016-08-20 02:10:00,2,41631,0,0.00,2,2,0,2,32267,49677,4998,40386,0,0,0,0,0.00,0.00,0.00,0.00
2016-08-20 02:20:00,2,42999,0,0.00,2,2,0,2,33197,50000,5643,42640,0,0,0,0,0.00,0.00,0.00,0.00
2016-08-20 02:30:00,2,43023,0,0.00,2,2,0,2,29150,50000,7436,45113,0,0,0,0,0.00,0.00,0.00,0.00
2016-08-20 02:40:00,2,36343,0,0.00,2,2,0,2,24205,50000,8267,36277,0,0,0,0,0.00,0.00,0.00,0.00
2016-08-20 02:50:00,2,44402,0,0.00,2,2,0,2,35711,50000,5458,45832,0,0,0,0,0.00,0.00,0.00,0.00
2016-08-20 03:00:00,2,37300,0,0.00,2,2,0,2,24743,48597,7252,36384,0,0,0,0,0.00,0.00,0.00,0.00
2016-08-20 03:10:00,2,38355,0,0.00,2,2,0,2,23684,50000,8163,39058,0,0,0,0,0.00,0.00,0.00,0.00
2016-08-20 03:20:00,2,38073,0,0.00,2,2,0,2,25602,50000,7157,36314,0,0,0,0,0.00,0.00,0.00,0.00
2016-08-20 03:30:00,2,41641,0,0.00,2,2,0,2,30369,50000,6560,41388,0,0,0,0,0.00,0.00,0.00,0.00
2016-08-20 03:40:00,2,43526,0,0.00,2,2,0,2,33224,50000,6527,45990,0,0,0,0,0.00,0.00,0.00,0.00
2016-08-20 03:50:00,2,39814,0,0.00,2,2,0,2,26318,49495,6776,39724,0,0,0,0,0.00,0.00,0.00,0.00
2016-08-20 04:00:00,2,45441,0,0.00,2,2,0,2,32415,50000,5075,47115,0,0,0,0,0.00,0.00,0.00,0.00
2016-08-20 04:10:00,2,42375,0,0.00,2,2,0,2,31133,50000,6282,41758,0,0,0,0,0.00,0.00,0.00,0.00
2016-08-20 04:20:00,2,46524,0,0.00,2,2,0,2,27514,50000,6778,50000,0,0,0,0,0.00,0.00,0.00,0.00
2016-08-20 04:30:00,2,44370,0,0.00,2,2,0,2,35750,50000,5163,44950,0,0,0,0,0.00,0.00,0.00,0.00
2016-08-20 04:40:00,2,43745,0,0.00,2,2,0,2,34461,49252,4831,43586,0,0,0,0,0.00,0.00,0.00,0.00
2016-08-20 04:50:00,2,49494,0,0.00,2,2,0,2,47149,50000,1021,50000,0,0,0,0,0.00,0.00,0.00,0.00
2016-08-20 05:00:00,2,46446,0,0.00,0,2,1,2,34758,50000,6030,50000,0,0,0,0,0.00,0.00,0.00,0.00
2016-08-20 05:10:00,1,45531,0,0.00,0,2,1,0,38707,50000,4005,44464,0,0,0,0,0.00,0.00,0.00,0.00
2016-08-20 05:20:00,0,45350,0,0.00,0,0,0,0,41255,50000,3745,43674,0,0,0,0,0.00,0.00,0.00,0.00
2016-08-20 05:30:00,0,49296,0,0.00,0,0,0,0,43936,50000,1810,50000,0,0,0,0,0.00,0.00,0.00,0.00
2016-08-20 05:40:00,0,48564,0,0.00,0,0,0,0,44104,50000,1999,49674,0,0,0,0,0.00,0.00,0.00,0.00
2016-08-20 05:50:00,0,48090,0,0.00,0,0,0,0,41893,50000,2896,50000,0,0,0,0,0.00,0.00,0.00,0.00
2016-08-20 06:00:00,0,46993,0,0.00,0,0,0,0,37616,50000,4305,49452,0,0,0,0,0.00,0.00,0.00,0.00
2016-08-20 06:10:00,0,46543,0,0.00,0,0,0,0,38462,50000,3480,47721,0,0,0,0,0.00,0.00,0.00,0.00
2016-08-20 06:20:00,0,49086,0,0.00,0,0,0,0,45344,50000,1448,50000,0,0,0,0,0.00,0.00,0.00,0.00
2016-08-20 06:30:00,0,47469,0,0.00,0,0,0,0,39117,50000,3657,50000,0,0,0,0,0.00,0.00,0.00,0.00
2016-08-20 06:40:00,0,49386,0,0.00,0,0,0,0,45822,50000,1325,50000,0,0,0,0,0.00,0.00,0.00,0.00
2016-08-20 06:50:00,0,48297,0,0.00,0,0,0,0,40598,50000,2816,50000,0,0,0,0,0.00,0.00,0.00,0.00
2016-08-20 07:00:00,0,48755,0,0.00,0,0,0,0,44487,50000,1974,50000,0,0,0,0,0.00,0.00,0.00,0.00
2016-08-20 07:10:00,0,50000,0,0.00,0,0,0,0,50000,50000,0,50000,0,0,0,0,0.00,0.00,0.00,0.00
2016-08-20 07:20:00,0,47295,0,0.00,0,0,0,0,43750,50000,2224,47128,0,0,0,0,0.00,0.00,0.00,0.00
2016-08-20 07:30:00,0,49609,0,0.00,0,0,0,0,46537,50000,1030,50000,0,0,0,0,0.00,0.00,0.00,0.00
2016-08-20 07:40:00,0,49578,0,0.00,0,0,0,0,46087,50000,1167,50000,0,0,0,0,0.00,0.00,0.00,0.00
2016-08-20 07:50:00,0,50000,0,0.00,0,0,0,0,50000,50000,0,50000,0,0,0,0,0.00,0.00,0.00,0.00
2016-08-20 08:00:00,0,49385,0,0.00,0,0,0,0,47646,50000,811,49838,0,0,0,0,0.00,0.00,0.00,0.00
2016-08-20 08:10:00,0,48998,0,0.00,0,0,0,0,43683,50000,1973,50000,0,0,0,0,0.00,0.00,0.00,0.00
2016-08-20 08:20:00,0,46938,0,0.00,0,0,0,0,37778,50000,4364,49664,0,0,0,0,0.00,0.00,0.00,0.00
2016-08-20 08:30:00,0,49243,0,0.00,0,0,0,0,46572,50000,1280,50000,0,0,0,0,0.00,0.00,0.00,0.00
2016-08-20 08:40:00,0,48936,0,0.00,0,0,0,0,42452,50000,2252,50000,0,0,0,0,0.00,0.00,0.00,0.00
2016-08-20 08:50:00,0,49017,0,0.00,0,0,0,0,41196,50000,2615,50000,0,0,0,0,0.00,0.00,0.00,0.00
2016-08-20 09:00:00,0,49898,0,0.00,0,0,0,0,48978,50000,307,50000,0,0,0,0,0.00,0.00,0.00,0.00
2016-08-20 09:10:00,0,48582,0,0.00,0,0,0,0,45230,50000,1910,49896,0,0,0,0,0.00,0.00,0.00,0.00
2016-08-20 09:20:00,0,48177,0,0.00,0,0,0,0,44369,50000,2086,49021,0,0,0,0,0.00,0.00,0.00,0.00
2016-08-20 09:30:00,0,47170,0,0.00,0,0,0,0,30913,50000,5887,50000,0,0,0,0,0.00,0.00,0.00,0.00
2016-08-20 09:40:00,0,49599,0,0.00,0,0,0,0,46380,50000,1079,50000,0,0,0,0,0.00,0.00,0.00,0.00
2016-08-20 09:50:00,0,47703,0,0.00,0,0,0,0,32688,50000,5282,50000,0,0,0,0,0.00,0.00,0.00,0.00
2016-08-20 10:00:00,0,49763,0,0.00,0,0,0,0,48466,50000,500,50000,0,0,0,0,0.00,0.00,0.00,0.00
2016-08-20 10:10:00,0,50000,0,0.00,0,0,0,0,50000,50000,0,50000,0,0,0,0,0.00,0.00,0.00,0.00
2016-08-20 10:20:00,0,40072,0,0.00,0,0,0,0,18168,50000,11894,46894,0,0,0,0,0.00,0.00,0.00,0.00
2016-08-20 10:30:00,0,49592,0,0.00,0,0,0,0,47595,50000,743,50000,0,0,0,0,0.00,0.00,0.00,0.00
2016-08-20 10:40:00,0,49109,0,0.00,0,0,0,0,43272,50000,1996,50000,0,0,0,0,0.00,0.00,0.00,0.00
2016-08-20 10:50:00,0,50000,0,0.00,0,0,0,0,50000,50000,0,50000,0,0,0,0,0.00,0.00,0.00,0.00
2016-08-20 11:00:00,0,49924,0,0.00,0,0,0,0,49343,50000,196,50000,0,0,0,0,0.00,0.00,0.00,0.00
2016-08-20 11:10:00,0,50000,0,0.00,0,0,0,0,50000,50000,0,50000,0,0,0,0,0.00,0.00,0.00,0.00
2016-08-20 11:20:00,0,49829,0,0.00,0,0,0,0,48785,50000,378,50000,0,0,0,0,0.00,0.00,0.00,0.00
2016-08-20 11:30:00,0,50000,0,0.00,0,0,0,0,50000,50000,0,50000,0,0,0,0,0.00,0.00,0.00,0.00
2016-08-20 11:40:00,0,50000,0,0.00,0,0,0,0,50000,50000,0,50000,0,0,0,0,0.00,0.00,0.00,0.00
2016-08-20 11:50:00,0,50000,0,0.00,0,0,0,0,50000,50000,0,50000,0,0,0,0,0.00,0.00,0.00,0.00
2016-08-20 12:00:00,0,50000,0,0.00,0,0,0,0,50000,50000,0,50000,0,0,0,0,0.00,0.00,0.00,0.00
2016-08-20 12:10:00,0,50000,0,0.00,0,0,0,0,50000,50000,0,50000,0,0,0,0,0.00,0.00,0.00,0.00
2016-08-20 12:20:00,0,50000,0,0.00,0,0,0,0,50000,50000,0,50000,0,0,0,0,0.00,0.00,0.00,0.00
2016-08-20 12:30:00,0,50000,0,0.00,0,0,0,0,50000,50000,0,50000,0,0,0,0,0.00,0.00,0.00,0.00
2016-08-20 12:40:00,0,50000,0,0.00,0,0,0,0,50000,50000,0,50000,0,0,0,0,0.00,0.00,0.00,0.00
2016-08-20 12:50:00,0,50000,0,0.00,0,0,0,0,50000,50000,0,50000,0,0,0,0,0.00,0.00,0.00,0.00
2016-08-20 13:00:00,0,50000,0,0.00,0,0,0,0,50000,50000,0,50000,0,0,0,0,0.00,0.00,0.00,0.00
2016-08-20 13:10:00,2,50000,0,0.00,0,2,1,2,50000,50000,0,50000,0,0,0,0,0.00,0.00,0.00,0.00
2016-08-20 13:20:00,2,49957,0,0.00,2,2,0,2,49573,50000,128,50000,0,0,0,0,0.00,0.00,0.00,0.00
2016-08-20 13:30:00,2,50000,0,0.00,2,2,0,2,50000,50000,0,50000,0,0,0,0,0.00,0.00,0.00,0.00
2016-08-20 13:40:00,2,49837,0,0.00,2,2,0,2,48432,50000,469,50000,0,0,0,0,0.00,0.00,0.00,0.00
2016-08-20 13:50:00,2,49996,0,0.00,2,2,0,2,49965,50000,10,50000,0,0,0,0,0.00,0.00,0.00,0.00
2016-08-20 14:00:00,0,50000,0,0.00,0,2,1,0,50000,50000,0,50000,0,0,0,0,0.00,0.00,0.00,0.00
2016-08-20 14:10:00,0,50000,0,0.00,0,0,0,0,50000,50000,0,50000,0,0,0,0,0.00,0.00,0.00,0.00
2016-08-20 14:20:00,0,50000,0,0.00,0,0,0,0,50000,50000,0,50000,0,0,0,0,0.00,0.00,0.00,0.00
2016-08-20 14:30:00,0,49933,0,0.00,0,0,0,0,49333,50000,200,50000,0,0,0,0,0.00,0.00,0.00,0.00
2016-08-20 14:40:00,0,50000,0,0.00,0,0,0,0,50000,50000,0,50000,0,0,0,0,0.00,0.00,0.00,0.00
2016-08-20 14:50:00,1,50000,0,0.00,0,2,1,0,50000,50000,0,50000,0,0,0,0,0.00,0.00,0.00,0.00
2016-08-20 15:00:00,2,50000,0,0.00,2,2,0,2,50000,50000,0,50000,0,0,0,0,0.00,0.00,0.00,0.00
2016-08-20 15:10:00,2,50000,0,0.00,2,2,0,2,50000,50000,0,50000,0,0,0,0,0.00,0.00,0.00,0.00
2016-08-20 15:20:00,2,50000,0,0.00,2,2,0,2,50000,50000,0,50000,0,0,0,0,0.00,0.00,0.00,0.00
2016-08-20 15:30:00,2,50000,0,0.00,2,2,0,2,50000,50000,0,50000,0,0,0,0,0.00,0.00,0.00,0.00
2016-08-20 15:40:00,2,49898,0,0.00,2,2,0,2,48975,50000,308,50000,0,0,0,0,0.00,0.00,0.00,0.00
2016-08-20 15:50:00,2,50000,0,0.00,2,2,0,2,50000,50000,0,50000,0,0,0,0,0.00,0.00,0.00,0.00
2016-08-20 16:00:00,2,50000,0,0.00,2,2,0,2,50000,50000,0,50000,0,0,0,0,0.00,0.00,0.00,0.00
2016-08-20 16:10:00,2,50000,0,0.00,2,2,0,2,50000,50000,0,50000,0,0,0,0,0.00,0.00,0.00,0.00
2016-08-20 16:20:00,2,49805,0,0.00,2,2,0,2,48050,50000,585,50000,0,0,0,0,0.00,0.00,0.00,0.00
2016-08-20 16:30:00,1,50000,0,0.00,0,2,1,0,50000,50000,0,50000,0,0,0,0,0.00,0.00,0.00,0.00
2016-08-20 16:40:00,0,50000,0,0.00,0,0,0,0,50000,50000,0,50000,0,0,0,0,0.00,0.00,0.00,0.00
2016-08-20 16:50:00,0,50000,0,0.00,0,0,0,0,50000,50000,0,50000,0,0,0,0,0.00,0.00,0.00,0.00
2016-08-20 17:00:00,0,50000,0,0.00,0,0,0,0,50000,50000,0,50000,0,0,0,0,0.00,0.00,0.00,0.00
2016-08-20 17:10:00,0,50000,0,0.00,0,0,0,0,50000,50000,0,50000,0,0,0,0,0.00,0.00,0.00,0.00
2016-08-20 17:20:00,0,50000,0,0.00,0,0,0,0,50000,50000,0,50000,0,0,0,0,0.00,0.00,0.00,0.00
2016-08-20 17:30:00,0,50000,0,0.00,0,0,0,0,50000,50000,0,50000,0,0,0,0,0.00,0.00,0.00,0.00
2016-08-20 17:40:00,0,50000,0,0.00,0,0,0,0,50000,50000,0,50000,0,0,0,0,0.00,0.00,0.00,0.00
2016-08-20 17:50:00,0,50000,0,0.00,0,2,1,0,50000,50000,0,50000,0,0,0,0,0.00,0.00,0.00,0.00
2016-08-20 18:00:00,2,50000,0,0.00,2,2,0,2,50000,50000,0,50000,0,0,0,0,0.00,0.00,0.00,0.00
2016-08-20 18:10:00,2,50000,0,0.00,2,2,0,2,50000,50000,0,50000,0,0,0,0,0.00,0.00,0.00,0.00
2016-08-20 18:20:00,2,50000,0,0.00,2,2,0,2,50000,50000,0,50000,0,0,0,0,0.00,0.00,0.00,0.00
2016-08-20 18:30:00,2,50000,0,0.00,0,2,1,2,50000,50000,0,50000,0,0,0,0,0.00,0.00,0.00,0.00
2016-08-20 18:40:00,2,50000,0,0.00,2,2,0,2,50000,50000,0,50000,0,0,0,0,0.00,0.00,0.00,0.00
2016-08-20 18:50:00,2,50000,0,0.00,2,2,0,2,50000,50000,0,50000,0,0,0,0,0.00,0.00,0.00,0.00
2016-08-20 19:00:00,1,50000,0,0.00,0,2,1,0,50000,50000,0,50000,0,0,0,0,0.00,0.00,0.00,0.00
2016-08-20 19:10:00,0,49995,0,0.00,0,0,0,0,49947,50000,16,50000,0,0,0,0,0.00,0.00,0.00,0.00
2016-08-20 19:20:00,0,50000,0,0.00,0,0,0,0,50000,50000,0,50000,0,0,0,0,0.00,0.00,0.00,0.00
2016-08-20 19:30:00,1,50000,0,0.00,0,2,1,0,50000,50000,0,50000,0,0,0,0,0.00,0.00,0.00,0.00
2016-08-20 19:40:00,2,50000,0,0.00,2,2,0,2,50000,50000,0,50000,0,0,0,0,0.00,0.00,0.00,0.00
2016-08-20 19:50:00,0,50000,0,0.00,0,2,1,0,50000,50000,0,50000,0,0,0,0,0.00,0.00,0.00,0.00
2016-08-20 20:00:00,0,49870,0,0.00,0,0,0,0,48699,50000,390,50000,0,0,0,0,0.00,0.00,0.00,0.00
2016-08-20 20:10:00,0,49476,0,0.00,0,2,1,0,46451,50000,1066,50000,0,0,0,0,0.00,0.00,0.00,0.00
2016-08-20 20:20:00,2,49824,0,0.00,2,2,0,2,48239,50000,528,50000,0,0,0,0,0.00,0.00,0.00,0.00
2016-08-20 20:30:00,2,48425,0,0.00,2,2,0,2,44919,50000,2160,50000,0,0,0,0,0.00,0.00,0.00,0.00
2016-08-20 20:40:00,2,49333,0,0.00,2,2,0,2,47717,50000,872,50000,0,0,0,0,0.00,0.00,0.00,0.00
2016-08-20 20:50:00,2,49868,0,0.00,2,2,0,2,48682,50000,395,50000,0,0,0,0,0.00,0.00,0.00,0.00
2016-08-20 21:00:00,2,48394,0,0.00,2,2,0,2,43016,50000,2472,50000,0,0,0,0,0.00,0.00,0.00,0.00
2016-08-20 21:10:00,2,48524,0,0.00,2,2,0,2,41527,50000,2993,50000,0,0,0,0,0.00,0.00,0.00,0.00
2016-08-20 21:20:00,2,49405,0,0.00,2,2,0,2,45929,50000,1287,50000,0,0,0,0,0.00,0.00,0.00,0.00
2016-08-20 21:30:00,2,49842,0,0.00,2,2,0,2,48861,50000,338,50000,0,0,0,0,0.00,0.00,0.00,0.00
2016-08-20 21:40:00,2,49961,0,0.00,2,2,0,2,49608,50000,118,50000,0,0,0,0,0.00,0.00,0.00,0.00
2016-08-20 21:50:00,2,49491,0,0.00,2,2,0,2,45679,50000,1291,50000,0,0,0,0,0.00,0.00,0.00,0.00
2016-08-20 22:00:00,2,49596,0,0.00,2,2,0,2,48296,50000,629,50000,0,0,0,0,0.00,0.00,0.00,0.00
2016-08-20 22:10:00,2,49570,0,0.00,2,2,0,2,48226,50000,701,50000,0,0,0,0,0.00,0.00,0.00,0.00
2016-08-20 22:20:00,2,48350,0,0.00,2,2,0,2,43864,50000,2076,49320,0,0,0,0,0.00,0.00,0.00,0.00
2016-08-20 22:30:00,2,46976,0,0.00,2,2,0,2,41312,50000,3069,47454,0,0,0,0,0.00,0.00,0.00,0.00
2016-08-20 22:40:00,2,48329,0,0.00,2,2,0,2,46669,50000,1413,47729,0,0,0,0,0.00,0.00,0.00,0.00
2016-08-20 22:50:00,2,48617,0,0.00,2,2,0,2,44093,50000,2107,49994,0,0,0,0,0.00,0.00,0.00,0.00
2016-08-20 23:00:00,2,48084,0,0.00,2,2,0,2,39729,50000,3035,49313,0,0,0,0,0.00,0.00,0.00,0.00
2016-08-20 23:10:00,2,46532,0,0.00,2,2,0,2,37450,50000,4615,49676,0,0,0,0,0.00,0.00,0.00,0.00
2016-08-20 23:20:00,2,41443,0,0.00,2,2,0,2,27821,50000,6624,41746,0,0,0,0,0.00,0.00,0.00,0.00
2016-08-20 23:30:00,2,48395,0,0.00,2,2,0,2,41038,50000,3079,50000,0,0,0,0,0.00,0.00,0.00,0.00
2016-08-20 23:40:00,2,46467,0,0.00,2,2,0,2,36529,50000,4903,48671,0,0,0,0,0.00,0.00,0.00,0.00
2016-08-20 23:50:00,2,39748,0,0.00,2,2,0,2,20693,50000,9839,43002,0,0,0,0,0.00,0.00,0.00,0.00
